When you browse on this site, cookies collect data to enhance your experience and personalize the content and advertising you see.
Visit our Privacy Policy to learn more. By continuing to use the site, you agree to this use of cookies and data.
  • In Hungary
  • List of Countries
  • For 7 days
  • Water Temperature
  • Satellite Maps
  • Weather Map
  • News
  • Weather Widgets
  • user-avatar
    Login

    Hourly Weather Sahariha

    Today, 20 May, Monday

    Time Temperature Precipitation Wind Pressure Humidity
    00:00 +11°C° 0 mm 1 mps 749 mmHg 81%
    01:00 +10°C° 0 mm 1 mps 750 mmHg 83%
    02:00 +10°C° 0 mm 1 mps 750 mmHg 85%
    03:00 +10°C° 0 mm 1 mps 750 mmHg 83%
    04:00 +11°C° 0 mm 1 mps 750 mmHg 82%
    05:00 +11°C° 0 mm 1 mps 750 mmHg 80%
    06:00 +13°C° 0 mm 1 mps 750 mmHg 72%
    07:00 +16°C° 0 mm 1 mps 750 mmHg 64%
    08:00 +18°C° 0 mm 0 mps 750 mmHg 56%
    09:00 +19°C° 0 mm 0 mps 750 mmHg 51%
    10:00 +21°C° 0 mm 0 mps 750 mmHg 45%
    11:00 +23°C° 0 mm 0 mps 750 mmHg 40%
    12:00 +23°C° 0 mm 0 mps 750 mmHg 38%
    13:00 +24°C° 0 mm 0 mps 750 mmHg 37%
    14:00 +24°C° 0 mm 0 mps 750 mmHg 35%
    15:00 +24°C° 0 mm 0 mps 749 mmHg 37%
    16:00 +23°C° 0 mm 0 mps 749 mmHg 39%
    17:00 +22°C° 0 mm 0 mps 749 mmHg 41%
    18:00 +22°C° 0 mm 1 mps 749 mmHg 47%
    19:00 +20°C° 0 mm 1 mps 749 mmHg 53%
    20:00 +17°C° 0 mm 2 mps 749 mmHg 59%
    21:00 +16°C° 0 mm 2 mps 749 mmHg 61%
    22:00 +16°C° 0 mm 2 mps 749 mmHg 64%
    23:00 +15°C° 0 mm 2 mps 749 mmHg 67%

    Tomorrow, 21 May, Tuesday

    Time Temperature Precipitation Wind Pressure Humidity
    00:00 +14°C° 0 mm 2 mps 749 mmHg 69%
    01:00 +13°C° 0 mm 2 mps 749 mmHg 72%
    02:00 +13°C° 0 mm 2 mps 749 mmHg 75%
    03:00 +13°C° 0 mm 2 mps 749 mmHg 76%
    04:00 +14°C° 0 mm 2 mps 748 mmHg 77%
    05:00 +14°C° 0 mm 2 mps 748 mmHg 78%
    06:00 +17°C° 0 mm 2 mps 748 mmHg 72%
    07:00 +19°C° 0 mm 2 mps 748 mmHg 65%
    08:00 +21°C° 0 mm 3 mps 748 mmHg 59%
    09:00 +22°C° 0 mm 3 mps 748 mmHg 54%
    10:00 +24°C° 0 mm 3 mps 748 mmHg 50%
    11:00 +23°C° 0 mm 4 mps 747 mmHg 46%
    12:00 +25°C° 0 mm 4 mps 747 mmHg 45%
    13:00 +25°C° 0 mm 3 mps 747 mmHg 45%
    14:00 +25°C° 0 mm 3 mps 746 mmHg 44%
    15:00 +25°C° 0 mm 3 mps 746 mmHg 45%
    16:00 +25°C° 0 mm 3 mps 745 mmHg 46%
    17:00 +24°C° 0 mm 3 mps 745 mmHg 48%
    18:00 +21°C° 0 mm 2 mps 745 mmHg 55%
    19:00 +19°C° 0 mm 2 mps 745 mmHg 62%
    20:00 +17°C° 0 mm 2 mps 744 mmHg 69%
    21:00 +16°C° 0 mm 2 mps 744 mmHg 71%
    22:00 +15°C° 0 mm 2 mps 744 mmHg 72%
    23:00 +15°C° 0 mm 2 mps 744 mmHg 73%

    Day after tomorrow, 22 May, Wednesday

    Time Temperature Precipitation Wind Pressure Humidity
    00:00 +14°C° 0 mm 2 mps 744 mmHg 74%
    01:00 +14°C° 0 mm 2 mps 744 mmHg 75%
    02:00 +13°C° 0 mm 2 mps 744 mmHg 76%
    03:00 +14°C° 0 mm 2 mps 744 mmHg 77%
    04:00 +14°C° 0 mm 2 mps 743 mmHg 77%
    05:00 +14°C° 0 mm 2 mps 743 mmHg 78%
    06:00 +16°C° 0 mm 2 mps 743 mmHg 73%
    07:00 +19°C° 0 mm 2 mps 743 mmHg 67%
    08:00 +21°C° 0 mm 2 mps 743 mmHg 62%
    09:00 +23°C° 0 mm 2 mps 742 mmHg 58%
    10:00 +24°C° 0 mm 3 mps 742 mmHg 53%
    11:00 +25°C° 0 mm 3 mps 742 mmHg 49%
    12:00 +25°C° 0.1 mm 3 mps 741 mmHg 47%
    13:00 +26°C° 0.1 mm 3 mps 741 mmHg 46%
    14:00 +26°C° 0.1 mm 3 mps 741 mmHg 45%
    15:00 +26°C° 0.1 mm 2 mps 740 mmHg 50%
    16:00 +25°C° 0.1 mm 2 mps 740 mmHg 56%
    17:00 +25°C° 0.1 mm 1 mps 739 mmHg 61%
    18:00 +23°C° 0 mm 1 mps 739 mmHg 68%
    19:00 +19°C° 0 mm 0 mps 739 mmHg 75%
    20:00 +17°C° 0 mm 0 mps 739 mmHg 82%
    21:00 +16°C° 0 mm 0 mps 739 mmHg 84%
    22:00 +18°C° 0 mm 1 mps 739 mmHg 86%
    23:00 +16°C° 0 mm 1 mps 738 mmHg 87%

    23 May, Thursday

    Time Temperature Precipitation Wind Pressure Humidity
    00:00 +16°C° 0 mm 1 mps 738 mmHg 89%
    01:00 +16°C° 0 mm 1 mps 738 mmHg 90%
    02:00 +15°C° 0 mm 2 mps 738 mmHg 91%
    03:00 +15°C° 0.1 mm 2 mps 738 mmHg 92%
    04:00 +16°C° 0.1 mm 2 mps 738 mmHg 93%
    05:00 +16°C° 0.1 mm 2 mps 739 mmHg 94%
    06:00 +15°C° 0.7 mm 2 mps 739 mmHg 94%
    07:00 +14°C° 0.7 mm 3 mps 739 mmHg 94%
    08:00 +13°C° 0.7 mm 3 mps 739 mmHg 94%
    09:00 +13°C° 0.1 mm 3 mps 740 mmHg 92%
    10:00 +13°C° 0.1 mm 3 mps 740 mmHg 90%
    11:00 +13°C° 0.1 mm 3 mps 740 mmHg 88%
    12:00 +14°C° 0 mm 3 mps 740 mmHg 82%
    13:00 +16°C° 0 mm 3 mps 740 mmHg 76%
    14:00 +17°C° 0 mm 3 mps 740 mmHg 71%
    15:00 +17°C° 0 mm 3 mps 740 mmHg 69%
    16:00 +17°C° 0 mm 3 mps 740 mmHg 67%
    17:00 +17°C° 0 mm 2 mps 741 mmHg 65%
    18:00 +16°C° 0 mm 3 mps 741 mmHg 66%
    19:00 +13°C° 0 mm 3 mps 741 mmHg 66%
    20:00 +12°C° 0 mm 3 mps 741 mmHg 67%
    21:00 +11°C° 0 mm 3 mps 741 mmHg 64%
    22:00 +10°C° 0 mm 3 mps 741 mmHg 62%
    23:00 +10°C° 0 mm 3 mps 742 mmHg 59%

    24 May, Friday

    Time Temperature Precipitation Wind Pressure Humidity
    00:00 +9°C° 0.1 mm 3 mps 741 mmHg 65%
    01:00 +9°C° 0.1 mm 3 mps 741 mmHg 71%
    02:00 +9°C° 0.1 mm 3 mps 741 mmHg 77%
    03:00 +8°C° 1 mm 3 mps 741 mmHg 81%
    04:00 +8°C° 1 mm 3 mps 741 mmHg 86%
    05:00 +7°C° 1 mm 3 mps 741 mmHg 90%
    06:00 +7°C° 0.9 mm 3 mps 741 mmHg 91%
    07:00 +7°C° 0.9 mm 3 mps 741 mmHg 92%
    08:00 +6°C° 0.9 mm 4 mps 741 mmHg 93%
    09:00 +6°C° 0.1 mm 4 mps 741 mmHg 93%
    10:00 +6°C° 0.1 mm 4 mps 741 mmHg 92%
    11:00 +6°C° 0.1 mm 4 mps 741 mmHg 91%
    12:00 +7°C° 0 mm 4 mps 740 mmHg 89%
    13:00 +8°C° 0 mm 4 mps 740 mmHg 87%
    14:00 +10°C° 0 mm 4 mps 740 mmHg 85%
    15:00 +11°C° 0 mm 4 mps 740 mmHg 85%
    16:00 +11°C° 0 mm 4 mps 739 mmHg 84%
    17:00 +12°C° 0 mm 3 mps 739 mmHg 84%
    18:00 +11°C° 0 mm 3 mps 739 mmHg 86%
    19:00 +11°C° 0 mm 3 mps 739 mmHg 87%
    20:00 +10°C° 0 mm 3 mps 738 mmHg 89%
    21:00 +10°C° 0.5 mm 3 mps 738 mmHg 91%
    22:00 +10°C° 0.5 mm 3 mps 738 mmHg 94%
    23:00 +10°C° 0.5 mm 3 mps 738 mmHg 96%

    25 May, Saturday

    Time Temperature Precipitation Wind Pressure Humidity
    00:00 +10°C° 1 mm 3 mps 737 mmHg 97%
    01:00 +11°C° 1 mm 3 mps 737 mmHg 98%
    02:00 +12°C° 1 mm 2 mps 737 mmHg 98%
    03:00 +13°C° 0.4 mm 2 mps 737 mmHg 98%
    04:00 +13°C° 0.4 mm 2 mps 736 mmHg 98%
    05:00 +14°C° 0.4 mm 2 mps 736 mmHg 98%
    06:00 +14°C° 0.3 mm 2 mps 736 mmHg 97%
    07:00 +15°C° 0.3 mm 2 mps 736 mmHg 97%
    08:00 +15°C° 0.3 mm 2 mps 736 mmHg 96%
    09:00 +16°C° 0.2 mm 2 mps 736 mmHg 94%
    10:00 +17°C° 0.2 mm 2 mps 736 mmHg 92%
    11:00 +17°C° 0.2 mm 2 mps 736 mmHg 90%
    12:00 +18°C° 0.9 mm 2 mps 736 mmHg 86%
    13:00 +19°C° 0.9 mm 2 mps 736 mmHg 83%
    14:00 +19°C° 0.9 mm 3 mps 736 mmHg 79%
    15:00 +19°C° 0.4 mm 3 mps 736 mmHg 77%
    16:00 +19°C° 0.4 mm 3 mps 736 mmHg 74%
    17:00 +19°C° 0.4 mm 3 mps 735 mmHg 72%
    18:00 +17°C° 0 mm 2 mps 735 mmHg 79%
    19:00 +15°C° 0 mm 1 mps 735 mmHg 86%
    20:00 +14°C° 0 mm 1 mps 735 mmHg 92%
    21:00 +13°C° 0 mm 1 mps 735 mmHg 93%
    22:00 +12°C° 0 mm 1 mps 735 mmHg 94%
    23:00 +10°C° 0 mm 0 mps 735 mmHg 94%
    Show more